{"data":{"norad_id":62606,"epoch":"2026-09-21T01:20:40.051104Z","epoch_age_seconds":123271,"freshness":"FRESH","line1":"1 62606U 25008V   26264.05601911  .00010160  00000+0  37801-3 0  9997","line2":"2 62606  42.9999 254.5509 0001038 247.0397 113.0346 15.27596562 95446","mean_motion":15.27596562,"eccentricity":0.0001038,"inclination_deg":42.9999,"raan_deg":254.5509,"arg_perigee_deg":247.0397,"mean_anomaly_deg":113.0346,"bstar":0.00037801,"rev_number":9544,"period_min":94.265726686023,"perigee_km":482.28731793246,"apogee_km":483.71168987067,"semimajor_km":6861.1365039016,"source":"CELESTRAK","updated_at":"2026-09-22T09:00:49.634170Z"}}